Tracking 28081 objects as of 27-Sep-2023
HD Live streaming from Space Station
objects crossing your sky now

HAWK-6B

Track HAWK-6B now!
10-day predictions


NORAD ID: 55324
Int'l Code: 2023-011A
Perigee: 546.2 km
Apogee: 551.6 km
Inclination: 40.5 °
Period: 95.5 minutes
Semi major axis: 6919 km
RCS: Unknown
Launch date: January 24, 2023
Source: United States (US)
Launch site: WALLOPS ISLAND (WLPIS)
Your satellite tracking list
Your tracking list is empty




NASA's NSSDC Master Catalog

Two Line Element Set (TLE):
1 55324U 23011A   23269.53559540  .00007013  00000-0  45576-3 0  9995
2 55324  40.5194 327.6116 0003895 125.7019 234.4148 15.08170990 36892
Source of the keplerian elements: AFSPC